Regional Weather Roundup
Issued by NWS

Home | Current Version | Previous Version | Graphics & Text | Print | Product List | Glossary On
Versions: 1 2 3 4 5 6 7 8 9 10 11 12 13 14 15 16 17 18 19 20 21 22 23 24 25 26 27
000
ASUS45 KBOU 200207
RWRCO

WEATHER ROUNDUP FOR COLORADO
NATIONAL WEATHER SERVICE DENVER/BOULDER CO
800 PM MDT WED JUL 19 2017

NOTE: "FAIR" INDICATES FEW OR NO CLOUDS BELOW 12000 FEET WITH NO
SIGNIFICANT WEATHER AND/OR OBSTRUCTIONS TO VISIBILITY.

COZ001>005-013-030-031-200300-
...NORTHWEST COLORADO...

CITY           SKY/WX    TMP DP  RH WIND       PRES   REMARKS
CRAIG          LGT RAIN  68  53  58 E10       30.27R
HAYDEN         MOCLDY    64  48  55 W10G16    30.30R
MEEKER         MOCLDY    65  61  87 N8        30.30R
RABBIT EARS PA CLOUDY    54  45  71 CALM      30.62R
STEAMBOAT SPGS CLOUDY    70  49  48 CALM      30.32R
WALDEN         MOCLDY    61  50  67 E7        30.44F
$$

COZ006>008-011-200300-
...WEST CENTRAL VALLEYS...

CITY           SKY/WX    TMP DP  RH WIND       PRES   REMARKS
GRAND JUNCTION FAIR      78  70  76 E6        30.05R
MONTROSE       MOCLDY    80  49  33 SE8       30.16S
EAGLE          FAIR      73  55  53 CALM      30.31R
RIFLE          MOCLDY    70  61  73 W22G30    30.23R
DELTA          FAIR      88  53  29 SE5       30.10R
NUCLA          NOT AVBL
$$

COZ017>023-064>068-200300-
...SOUTHWEST COLORADO...

CITY           SKY/WX    TMP DP  RH WIND       PRES   REMARKS
DURANGO        TSTM      77  46  33 NW25G33   30.22R
CORTEZ         FAIR      87  47  24 W6        30.14S
PAGOSA SPRINGS FAIR      81  39  22 S7        30.32R
TELLURIDE      FAIR      67  53  61 CALM      30.47S
WOLF CREEK PAS FAIR      59  41  51 SW7       30.75R
$$

COZ009-010-012-014-032>034-037-058>063-200300-
...CENTRAL COLORADO...

CITY           SKY/WX    TMP DP  RH WIND       PRES   REMARKS
ASPEN          CLOUDY    61  54  77 SE15G23   30.39R
BUENA VISTA    LGT RAIN  62  52  69 NW8       30.40F
COPPER MTN     CLOUDY    54  43  66 SE8       30.74R THUNDER
BERTHOUD PASS  MOCLDY    50  34  53 SW3       30.77S
COTTONWOOD PAS CLOUDY    57  46  67 W9G21     30.54F
GUNNISON       FAIR      70  51  51 SE12      30.36R
KREMMLING      FAIR      68  57  68 CALM      30.39R
LEADVILLE      LGT RAIN  53  49  86 W6        30.58R
MONARCH PASS   CLOUDY    54  37  54 W17       30.81F
SALIDA         FAIR      71  52  50 N7        30.43F
SUNLIGHT       MOCLDY    54  45  71 E7        30.64R
WILKERSON PASS CLOUDY    52  45  76 SW13      30.68R
$$

COZ069>075-200300-
...SAN LUIS VALLEY/SANGRE DE CRISTO MOUNTAINS...

CITY           SKY/WX    TMP DP  RH WIND       PRES   REMARKS
ALAMOSA        FAIR      76  55  48 E5        30.27S
DEL NORTE      LGT RAIN  73  46  38 NW8       30.35R
LA VETA PASS   NOT AVBL
SAGUACHE         N/A    N/A N/A N/A MISG        N/A
$$

COZ035-036-038>040-200300-
...NORTHERN COLORADO FRONT RANGE...

CITY           SKY/WX    TMP DP  RH WIND       PRES   REMARKS
DENVER INTL AP MOCLDY    81  49  32 S25       30.12S
DMNS CITY PARK   N/A     80  47  30 S7G16     30.12F
AURORA         NOT AVBL
FRONT RANGE AP FAIR      82  46  28 MISG      30.14F
ERIE MUNI ARPT FAIR      84  44  24 S16G26    30.12R
BOULDER MUN AP FAIR      84  43  23 S13G18    30.12R
CENTENNIAL     LGT RAIN  73  57  57 S8        30.18F
BROOMFIELD     FAIR      81  46  30 S13       30.17R
FORT COLLINS   FAIR      84  51  31 N10       30.09R
LONGMONT       FAIR      87  44  22 S8        30.11R
$$

COZ041-046-047-076>085-087-088-200300-
...PIKES PEAK/PALMER DIVIDE AND SOUTHERN FOOTHILLS...

CITY           SKY/WX    TMP DP  RH WIND       PRES   REMARKS
COLO. SPRINGS  MOCLDY    78  51  38 NW15G29   30.21R
A. F. ACADEMY  CLOUDY    70  52  52 N12       30.26R
SCHRIEVER AFB  MOCLDY    77  46  33 NW18G25   30.21R
CHEYENNE MTN   NOT AVBL
ELLICOTT       MOCLDY   N/A N/A N/A N20G30    30.18R THUNDER
FALCON           N/A     73  46  37 NW18G30   30.28R
FORT CARSON    CLOUDY    78  51  38 NW17      30.17R
LIMON          FAIR      82  53  36 S10       30.10S
MONUMENT HILL  FAIR      64  52  63 W16G23    30.30S
CANON CITY     MOCLDY    73  61  64 W17       30.11F
WALSENBURG     FAIR      86  48  26 S9        30.13R
TRINIDAD       FAIR      86  42  21 S16G24    30.13S
$$

COZ042>045-048>051-090-091-200300-
...NORTHEAST COLORADO...

CITY           SKY/WX    TMP DP  RH WIND       PRES   REMARKS
GREELEY ARPT   FAIR      84  54  35 W12       30.05R
AKRON          FAIR      90  50  25 S15       30.02R
BURLINGTON     FAIR      83  57  41 S10       30.02F
WRAY           NOT AVBL
YUMA           FAIR      82  59  44 S10       29.99R
STERLING       FAIR      82  61  47 NE6       29.95R
HOLYOKE        FAIR      84  63  48 S9        29.96R
FORT MORGAN    NOT AVBL
$$

COZ086-089-092>099-200300-
...SOUTHEAST COLORADO...

CITY           SKY/WX    TMP DP  RH WIND       PRES   REMARKS
PUEBLO         FAIR      90  50  25 SW6       30.00R
LA JUNTA       FAIR      91  52  26 SE13      30.01R
LAMAR          FAIR      89  53  29 S14       29.97S
SPRINGFIELD      N/A     82  50  32 S14       30.08R
$$




USA.gov is the U.S. government's official web portal to all federal, state and local government web resources and services.